This is the latest recevied weather packets stored in our database for station/object IT9CYW-12. If no packets are shown the sender has not sent any weather packets the latest 10 day(s).
| Time | Temp. | Humidity | Pressure | Rain* | Wind** | Luminosity | Snow |
|---|---|---|---|---|---|---|---|
| 1777244216 | 15.56° C | 31% | 982.2 hPa | - | - | 0 W/m² | - |
| 1777243316 | 15.56° C | 32% | 982.4 hPa | - | - | 0 W/m² | - |
| 1777242416 | 15.56° C | 32% | 982.5 hPa | - | - | 0 W/m² | - |
| 1777241516 | 15° C | 33% | 982.5 hPa | - | - | 0 W/m² | - |
| 1777240615 | 15° C | 34% | 982.5 hPa | - | - | 0 W/m² | - |
| 1777239715 | 15° C | 33% | 982.5 hPa | - | - | 0 W/m² | - |
| 1777238815 | 15° C | 33% | 982.5 hPa | - | - | 0 W/m² | - |
| 1777237914 | 15° C | 34% | 982.7 hPa | - | - | 0 W/m² | - |
| 1777237013 | 15° C | 36% | 982.5 hPa | - | - | 0 W/m² | - |
| 1777236113 | 14.44° C | 45% | 982.5 hPa | - | - | 0 W/m² | - |
| 1777235213 | 13.89° C | 53% | 982.7 hPa | - | - | 0 W/m² | - |
| 1777234313 | 13.89° C | 60% | 982.5 hPa | - | - | 0 W/m² | - |
| 1777233413 | 13.89° C | 63% | 982.7 hPa | - | - | 0 W/m² | - |
| 1777232512 | 13.89° C | 63% | 982.7 hPa | - | - | 0 W/m² | - |
| 1777231612 | 13.89° C | 63% | 982.5 hPa | - | - | 0 W/m² | - |
| 1777230712 | 13.89° C | 66% | 982.5 hPa | - | - | 0 W/m² | - |
| 1777229812 | 14.44° C | 64% | 982.5 hPa | - | - | 0 W/m² | - |
| 1777228911 | 14.44° C | 63% | 982.2 hPa | - | - | 0 W/m² | - |
| 1777228011 | 14.44° C | 64% | 982 hPa | - | - | 0 W/m² | - |
| 1777226219 | 15° C | 62% | 981.9 hPa | - | - | 1 W/m² | - |
| 1777225318 | 15° C | 60% | 982 hPa | - | - | 7 W/m² | - |
| 1777224418 | 15.56° C | 58% | 981.7 hPa | - | - | 14 W/m² | - |
| 1777223518 | 15.56° C | 57% | 981.9 hPa | - | - | 21 W/m² | - |
| 1777222618 | 16.11° C | 53% | 981.7 hPa | - | - | 26 W/m² | - |
| 1777221718 | 16.11° C | 52% | 981.7 hPa | - | - | 29 W/m² | - |
* Rain since midnight (hover to see other rain measurements)
** Current wind speed in m/s (hover to see current wind gust speed)